User: anonymous
Location: Steinbach
(49.5170°N, 96.6830°W)
Time: 12:44:44
(UTC-05:00)
Language:

NOSS 3-4 (A) - Orbit

View from above orbital plane
View from above orbital plane
View from above satellite
View from above satellite

Ground track
Ground track

The orbit data is extracted from the following two-line orbital elements,

1 31701U 07027A   14256.78233405 0.00000000  00000-0  00000-0 0    01
2 31701  63.4030 130.6452 0112000  37.4691 322.5309 13.40653071    09
Epoch (UTC): 13 September 2014 18:46:33
Eccentricity: 0.0112000
inclination: 63.4030°
perigee height: 1023 km
apogee height: 1190 km
right ascension of ascending node: 130.6452°
argument of perigee: 37.4691°
revolutions per day: 13.40653071
mean anomaly at epoch: 322.5309°
orbit number at epoch: 0

The dashed part of the orbit path shows where the satellite is in the earth's shadow,  

DLR